This is the latest recevied weather packets stored in our database for station/object SV9FBP. If no packets are shown the sender has not sent any weather packets the latest 10 day(s).
| Time | Temp. | Humidity | Pressure | Rain* | Wind** | Luminosity | Snow |
|---|---|---|---|---|---|---|---|
| 1778053136 | 19.44° C | 56% | 1015.6 hPa | 0 mm | - | - | - |
| 1778052233 | 19.44° C | 56% | 1015.5 hPa | 0 mm | - | - | - |
| 1778051331 | 18.89° C | 58% | 1015.2 hPa | 0 mm | - | - | - |
| 1778050432 | 18.33° C | 55% | 1015.3 hPa | 0 mm | - | - | - |
| 1778049528 | 18.33° C | 47% | 1015.1 hPa | 0 mm | - | - | - |
| 1778048625 | 17.78° C | 46% | 1015.2 hPa | 0 mm | - | - | - |
| 1778047722 | 17.22° C | 52% | 1015.2 hPa | 0 mm | - | - | - |
| 1778046820 | 16.67° C | 54% | 1014.9 hPa | 0 mm | - | - | - |
| 1778045918 | 16.67° C | 53% | 1014.9 hPa | 0 mm | - | - | - |
| 1778045015 | 16.11° C | 54% | 1015.1 hPa | 0 mm | - | - | - |
| 1778044114 | 15° C | 61% | 1014.8 hPa | 0 mm | - | - | - |
| 1778043212 | 14.44° C | 61% | 1014.6 hPa | 0 mm | - | - | - |
| 1778042309 | 13.89° C | 60% | 1014.6 hPa | 0 mm | - | - | - |
| 1778041408 | 13.89° C | 58% | 1014.6 hPa | 0 mm | - | - | - |
| 1778040506 | 13.33° C | 59% | 1014.6 hPa | 0 mm | - | - | - |
| 1778039603 | 13.33° C | 58% | 1014.5 hPa | 0 mm | - | - | - |
| 1778038702 | 13.33° C | 58% | 1014.3 hPa | 0 mm | - | - | - |
| 1778037799 | 13.33° C | 57% | 1014.3 hPa | 0 mm | - | - | - |
| 1778036897 | 13.33° C | 56% | 1014.1 hPa | 0 mm | - | - | - |
| 1778035995 | 13.89° C | 56% | 1014.2 hPa | 0 mm | - | - | - |
| 1778035093 | 13.89° C | 57% | 1014.1 hPa | 0 mm | - | - | - |
| 1778034190 | 13.89° C | 56% | 1014.3 hPa | 0 mm | - | - | - |
| 1778033289 | 13.89° C | 58% | 1014.3 hPa | 0 mm | - | - | - |
| 1778032386 | 14.44° C | 57% | 1014.3 hPa | 0 mm | - | - | - |
| 1778031484 | 14.44° C | 59% | 1014.4 hPa | 0 mm | - | - | - |
* Rain latest hour (hover to see other rain measurements)
** Current wind speed in m/s (hover to see current wind gust speed)